Location: Unspecified
(48.8656°N, 0.0000°E)
Time: 21:46:10
(UTC+00:00)

Vanguard 1 - Pass Details

Date: 23 June 2019
Orbit: 653 x 3830 km, 34.3° (Epoch: 17 July)

Event Time Altitude Azimuth Distance (km) Brightness Sun altitude
Rises 01:21:09 0° 217° (SW) 7,853 - -15.6°
Reaches altitude 10° 01:27:55 10° 208° (SSW) 6,567 - -15.2°
Exits shadow 01:32:32 17° 199° (SSW) 5,694 13.2 -14.9°
Maximum altitude 01:43:16 29° 158° (SSE) 4,093 12.8 -14.3°
Drops below altitude 10° 01:53:35 10° 105° (ESE) 4,387 13.5 -13.5°
Sets 01:56:57 0° 94° (E) 4,980 14.0 -13.3°
